Terug naar catalogus

STARLINK-33805

ActiefCommunicatieVLEO
NORAD 63590·PAYLOAD·🇺🇸 United States

Gelanceerd Apr 14, 2025 vanaf Cape Canaveral Space Force Station

Loading…

Volgende Passages (komende 24 uur)

TLE

VersSource: CelesTrak SupGP

Epoch: Sep 14, 2026, 21:42 UTC

1 63590C 25076X   26257.90465278 -.00020823  00000+0 -75432-3 0  2573
2 63590  43.0016 333.4657 0001663 275.6769 100.1915 15.27583411    13

Volg STARLINK-33805 in realtime met AllMySat

Download on the App Store